Weather History for San Jose, Costa Rica

Change the Weather History Date:

Thursday, January 2, 2014

  Actual Average Record
Temperature  
Mean Temperature 74 °F -  
Max Temperature 81 °F 80 °F 86 °F (2002)
Min Temperature 68 °F 63 °F 62 °F (1997)
Cooling Degree Days 10    
Growing Degree Days 24 (Base 50)    
Moisture  
Dew Point 60 °F    
Average Humidity 64    
Maximum Humidity 78    
Minimum Humidity 41    
Precipitation  
Precipitation 0.00 in 0.01 in - ()
Sea Level Pressure  
Sea Level Pressure 29.91 in    
Wind  
Wind Speed 10 mph ()    
Max Wind Speed 22 mph    
Max Gust Speed 25 mph    
Visibility 7.4 miles    
Events      
Averages and records for this station are not official NWS values.
T = Trace of Precipitation, MM = Missing Value Source: Averaged Metar Reports

Daily Weather History Graph

Daily Weather History Graph

Search for Another Location

Airport:

Trip Planner

Search our weather history database for the weather conditions in past years. The results will help you decide how hot, cold, wet, or windy it might be!

Date:

Astronomy

Jan. 02, 2014 Rise Set
Actual Time 5:54 AM CST 5:27 PM CST
Civil Twilight 5:31 AM CST 5:50 PM CST
Nautical Twilight 5:05 AM CST 6:16 PM CST
Astronomical Twilight 4:39 AM CST 6:42 PM CST
Moon 6:54 AM CST (1/2) 7:00 PM CST (1/2)
Length of Visible Light 12h 18m
Length of Day
11h 33m
Waxing Crescent, 3% of the Moon is Illuminated
Jan 2
Waxing Crescent
Jan 7
First Quarter
Jan 15
Full
Jan 23
Last Quarter
Jan 30
New

Hourly Weather History & Observations

Time (CST) Temp. Heat Index Dew Point Humidity Pressure Visibility Wind Dir Wind Speed Gust Speed Precip Events Conditions
12:00 AM 71 °F - 60 °F 60% 29.81 in 12 mi East 21.9 mph - -   Scattered Clouds
12:00 AM 69.8 °F - 60.8 °F 73% 29.96 in 6.2 mi East 10.4 mph 21.9 mph N/A   Scattered Clouds
1:00 AM 69.8 °F - 59.0 °F 68% 29.95 in 6.2 mi East 8.1 mph - N/A   Scattered Clouds
2:00 AM 69.8 °F - 60.8 °F 73% 29.95 in 6.2 mi ESE 6.9 mph - N/A   Partly Cloudy
3:00 AM 71 °F - 60 °F 60% 29.79 in 12 mi ENE 6.9 mph - -   Scattered Clouds
3:00 AM 68.0 °F - 60.8 °F 78% 29.93 in 6.2 mi ENE 6.9 mph - N/A   Partly Cloudy
4:00 AM 68.0 °F - 60.8 °F 78% 29.93 in 6.2 mi East 9.2 mph - N/A   Partly Cloudy
5:00 AM 68.0 °F - 60.8 °F 78% 29.93 in 6.2 mi East 6.9 mph - N/A   Partly Cloudy
6:00 AM 69 °F - 60 °F 65% 29.82 in 12 mi East 18.4 mph - -   Scattered Clouds
6:00 AM 68.0 °F - 59.0 °F 73% 29.94 in 6.2 mi East 6.9 mph 18.4 mph N/A   Scattered Clouds
7:00 AM 71.6 °F - 60.8 °F 69% 29.97 in 6.2 mi NE 6.9 mph - N/A   Scattered Clouds
8:00 AM 73.4 °F - 60.8 °F 65% 29.98 in 6.2 mi East 11.5 mph - N/A   Scattered Clouds
9:00 AM 75.2 °F - 60.8 °F 61% 29.98 in 6.2 mi East 13.8 mph 25.3 mph N/A   Scattered Clouds
10:00 AM 78.8 °F - 60.8 °F 54% 29.98 in 6.2 mi East 13.8 mph 25.3 mph N/A   Scattered Clouds
11:00 AM 80.6 °F 81.5 °F 60.8 °F 51% 29.96 in 6.2 mi ESE 12.7 mph 25.3 mph N/A   Partly Cloudy
12:00 PM 78.8 °F - 60.8 °F 54% 29.94 in 6.2 mi ESE 13.8 mph 25.3 mph N/A   Scattered Clouds
1:00 PM 78.8 °F - 59.0 °F 51% 29.92 in 6.2 mi East 13.8 mph - N/A   Scattered Clouds
2:00 PM 80.6 °F 81.1 °F 59.0 °F 48% 29.90 in 6.2 mi ESE 12.7 mph - N/A   Scattered Clouds
3:00 PM 79 °F - 59 °F 41% 29.74 in 12 mi East 11.5 mph - -   Scattered Clouds
3:00 PM 78.8 °F - 59.0 °F 51% 29.89 in 6.2 mi East 11.5 mph 23.0 mph N/A   Scattered Clouds
4:00 PM 75.2 °F - 60.8 °F 61% 29.90 in 6.2 mi ESE 8.1 mph - N/A   Scattered Clouds
5:00 PM 75.2 °F - 60.8 °F 61% 29.92 in 6.2 mi ESE 6.9 mph - N/A   Scattered Clouds
6:00 PM 71 °F - 60 °F 61% 29.79 in 12 mi East 8.1 mph - -   Scattered Clouds
6:00 PM 71.6 °F - 60.8 °F 69% 29.92 in 6.2 mi East 8.1 mph - N/A   Scattered Clouds
7:00 PM 69.8 °F - 60.8 °F 73% 29.95 in 6.2 mi East 9.2 mph - N/A   Scattered Clouds
8:00 PM 69.8 °F - 60.8 °F 73% 29.96 in 6.2 mi East 9.2 mph - N/A   Scattered Clouds
9:00 PM 71 °F - 60 °F 61% 29.82 in 12 mi East 13.8 mph - -   Scattered Clouds
9:00 PM 71.6 °F - 60.8 °F 69% 29.97 in 6.2 mi East 13.8 mph 25.3 mph N/A   Scattered Clouds
10:00 PM 69.8 °F - 60.8 °F 73% 29.97 in 6.2 mi East 15.0 mph - N/A   Scattered Clouds
11:00 PM 68.0 °F - 60.8 °F 78% 29.97 in 6.2 mi NE 11.5 mph - N/A   Scattered Clouds